Regional Weather Roundup
Issued by NWS

Home | Current Version | Previous Version | Text Only | Print | Product List | Glossary Off
Versions: 1 2 3 4 5 6 7 8 9 10 11 12 13 14 15 16 17 18 19 20 21 22 23 24 25 26 27 28 29 30 31 32 33 34 35 36 37 38 39 40 41 42 43 44 45 46 47 48 49 50

000
ASUS43 KMKX 190300
RWRWI

WISCONSIN REGIONAL WEATHER ROUNDUP
NATIONAL WEATHER SERVICE MILWAUKEE/SULLIVAN WI
1000 PM CDT FRI APR 18 2014

NOTE: "FAIR" INDICATES FEW OR NO CLOUDS BELOW 12,000 FEET WITH NO
SIGNIFICANT WEATHER AND/OR OBSTRUCTIONS TO VISIBILITY.

WIZ001-002-006>008-014>016-023>028-190400-
NORTHWEST WISCONSIN

CITY           SKY/WX    TMP DP  RH WIND       PRES   REMARKS
SUPERIOR ARPT  CLOUDY    33  28  82 NE8       30.33S WCI  26
ASHLAND        MOCLDY    28  26  92 N5        30.37R WCI  23
HAYWARD        CLOUDY    41  17  38 E6        30.30S
SIREN          MOCLDY    42  21  43 E5        30.27S
RICE LAKE      MOCLDY    42  23  47 E7        30.30R
LADYSMITH      CLOUDY    42  20  42 E7        30.32S
EAU CLAIRE     NOT AVBL
MENOMONIE      CLEAR     43  28  55 E9        30.27S
NEW RICHMOND   PTCLDY    42  26  53 E7        30.25S
OSCEOLA        PTCLDY    41  27  57 E5        30.28R
$$

WIZ003>005-009-010-017-018-190400-
NORTH CENTRAL WISCONSIN

CITY           SKY/WX    TMP DP  RH WIND       PRES   REMARKS
WOODRUFF       CLEAR     34  23  64 E5        30.34S WCI  30
RHINELANDER    CLEAR     32  22  66 E8        30.35S WCI  25
EAGLE RIVER    CLEAR     32  22  67 E6        30.35F WCI  26
LAND O LAKES   CLEAR     28  26  94 CALM      30.36F
PHILLIPS       MOCLDY    37  18  45 E5        30.33R WCI  33
TOMAHAWK       CLEAR     34  17  49 CALM      30.34R
MEDFORD        PTCLDY    39  20  47 E8        30.32S WCI  34
MERRILL        CLEAR     38  17  44 CALM      30.35R
$$

WIZ029-030-035-036-043>047-190400-
CENTRAL WISCONSIN

CITY           SKY/WX    TMP DP  RH WIND       PRES   REMARKS
WAUSAU         CLEAR     37  20  50 E7        30.32S WCI  32
MOSINEE        NOT AVBL
MARSHFIELD     CLEAR     40  24  53 E9        30.31S WCI  34
STEVENS POINT  CLEAR     38  22  51 E8        30.35R WCI  32
WAUPACA        CLEAR     43  32  65 E9        30.38R
WAUTOMA        NOT AVBL
WISC RAPIDS    CLEAR     41  23  48 E7        30.34R
CAMP DOUGLAS   NOT AVBL
$$

WIZ011>013-019>022-031-037>040-048>050-190400-
NORTHEAST WISCONSIN

CITY           SKY/WX    TMP DP  RH WIND       PRES   REMARKS
ANTIGO         CLEAR     34  23  62 E9        30.36R WCI  27
STURGEON BAY   CLEAR     34  25  69 E6        30.42S WCI  29
GREEN BAY      CLEAR     36  27  69 E7        30.40S WCI  30
MANITOWOC      NOT AVBL
APPLETON       CLEAR     37  28  70 SE9       30.39R WCI  31
CLINTONVILLE   CLEAR     37  28  70 E5        30.37S WCI  34
OSHKOSH        CLEAR     36  27  69 SE7       30.39R WCI  30
$$

WIZ032>034-041-042-053>061-190400-
SOUTHWEST WISCONSIN

CITY           SKY/WX    TMP DP  RH WIND       PRES   REMARKS
LA CROSSE      CLEAR     49  27  42 E9        30.26F
SPARTA         CLEAR     42  27  54 E5        30.31S
VIROQUA        FAIR      44  28  54 E8        30.27S
BOSCOBEL       CLEAR     49  27  42 E6        30.29S
PRAIRIE DU CHI CLEAR     48  29  48 E6        30.27S
PLATTEVILLE    FAIR      45  32  59 E9        30.30S
$$

WIZ056-057-062-063-064-067-068-190400-
SOUTH CENTRAL WISCONSIN

CITY           SKY/WX    TMP DP  RH WIND       PRES   REMARKS
BARABOO/DELLS  CLEAR     44  29  53 E8        30.32S
LONE ROCK      NOT AVBL
WATERTOWN      CLEAR     35  28  76 E7        30.36R WCI  29
MADISON        CLEAR     41  32  70 E10       30.35R
MIDDLETON      FAIR      46  32  56 E12       30.33R
MONROE         CLEAR     42  33  72 E10       30.32R
JANESVILLE     CLEAR     39  32  75 E13       30.35R WCI  32
$$

WIZ051-052-058>065-066-070>072-190400-
SOUTHEAST WISCONSIN

CITY           SKY/WX    TMP DP  RH WIND       PRES   REMARKS
MILWAUKEE      CLEAR     34  28  79 NE6       30.39S WCI  29
WAUKESHA       CLEAR     32  27  80 E6        30.38  WCI  26
MILWAUKEE/TIMM CLEAR     34  27  75 NE5       30.39S WCI  30
RACINE         CLEAR     34  28  79 NE9       30.39R WCI  27
BURLINGTON     CLEAR     32  27  80 E3        30.39R
KENOSHA        CLEAR     34  27  75 NE7       30.38R WCI  28
FOND DU LAC    CLEAR     36  25  64 E3        30.37F
SHEBOYGAN      CLEAR     31  26  82 NE5       30.40S WCI  26
WEST BEND      CLEAR     32  27  80 E3        30.38F
JUNEAU         CLEAR     36  26  69 E9        30.37S WCI  29
$$

LSZ147-162-190400-
LAKE SUPERIOR

STATION/POSITION TIME  TEMP    WIND        PRES    WAVE
                       AIR SEA DIR/SP/G            HT/PER
                 (UTC) (F)     (DEG/KT/KT) (MB)    (FT/S)
DEVILS ISLAND    0200   30      90/  8/  9 1030.0F
PORT WING        0200   35     110/  3/  7 1027.8R
SAXON HARBOR     0200             CALM     1028.1F
$$

LMZ867-665-643>646-190400-
LAKE MICHIGAN

STATION/POSITION TIME  TEMP    WIND        PRES    WAVE
                       AIR SEA DIR/SP/G            HT/PER
                 (UTC) (F)     (DEG/KT/KT) (MB)    (FT/S)
NORTHPORT PIER   0200   32     100/  3/  4 1030.5R
SISTER BAY       0223   33      CALM  /  3   N/A
KEWAUNEE LAKESHO 0200   34      50/  3/  4 1030.3R
SHEBOYGAN LAKESH 0200   37      30/  6/  7 1030.6R
PORT WASHINGTON  0200   36      10/  2/  5 1029.8R
MILWAUKEE LAKESH 0200   36      10/  8/ 11   N/A
KENOSHA   LAKESH 0200   36      30/ 11/ 15   N/A
$$

TC  - TEMPERATURE IN CELSIUS
VSB - VISIBILITY IN STATUTE MILES
WCI - WIND CHILL INDEX
HX  - HEAT INDEX




USA.gov is the U.S. government's official web portal to all federal, state and local government web resources and services.